Ashland, WI

3:19 AM CDT on May 25, 2017 (GMT -0500)
Kennedy Memorial

Weather History for KASX - December, 2013

Change the Weather History Date:

Saturday, December 28, 2013

  Actual Average Record
Temperature  
Mean Temperature 24 °F -  
Max Temperature 32 °F 25 °F 43 °F (1979)
Min Temperature 16 °F 7 °F -17 °F (1964)
Degree Days  
Heating Degree Days 40    
Moisture  
Dew Point 23 °F    
Average Humidity 89    
Maximum Humidity 100    
Minimum Humidity 79    
Precipitation  
Precipitation 0.02 in - - ()
Sea Level Pressure  
Sea Level Pressure 29.88 in    
Wind  
Wind Speed 9 mph (NNE)    
Max Wind Speed 32 mph    
Max Gust Speed 94 mph    
Visibility 5 miles    
Events Fog , Rain , Snow    
Averages and records for this station are not official NWS values.
T = Trace of Precipitation, MM = Missing Value Source: NWS Daily Summary

Daily Weather History Graph

Daily Weather History Graph

Search for Another Location

Airport or City:

Trip Planner

Search our weather history database for the weather conditions in past years. The results will help you decide how hot, cold, wet, or windy it might be!

Date:

Astronomy

Dec. 28, 2013 Rise Set
Actual Time 7:47 AM CST 4:23 PM CST
Civil Twilight 7:12 AM CST 4:58 PM CST
Nautical Twilight 6:33 AM CST 5:37 PM CST
Astronomical Twilight 5:57 AM CST 6:13 PM CST
Moon 3:16 AM CST (12/28) 1:21 PM CST (12/28)
Length of Visible Light 9h 46m
Length of Day
8h 36m
Waning Crescent, 19% of the Moon is Illuminated
Dec 28
Waning Crescent
Jan 1
New
Jan 7
First Quarter
Jan 15
Full
Jan 23
Last Quarter

Hourly Weather History & Observations

Time (CST) Temp. Windchill Dew Point Humidity Pressure Visibility Wind Dir Wind Speed Gust Speed Precip Events Conditions
12:53 AM 32.0 °F 26.4 °F 27.0 °F 82% 29.94 in 10.0 mi SSW 5.8 mph - N/A   Overcast
1:53 AM 30.9 °F 25.2 °F 27.0 °F 85% 29.95 in 10.0 mi WSW 5.8 mph - N/A   Overcast
2:53 AM 30.0 °F 22.4 °F 26.1 °F 85% 29.96 in 10.0 mi WSW 8.1 mph - N/A   Overcast
3:16 AM 28.4 °F 21.2 °F 24.8 °F 86% 29.91 in 10.0 mi SW 6.9 mph - N/A   Mostly Cloudy
3:53 AM 26.1 °F 20.5 °F 23.0 °F 88% 29.94 in 10.0 mi SW 4.6 mph - N/A   Clear
4:53 AM 23.0 °F 18.4 °F 21.9 °F 96% 29.93 in 10.0 mi SSW 3.5 mph - N/A   Scattered Clouds
4:58 AM 24.8 °F 19.1 °F 21.2 °F 86% 29.89 in 10.0 mi SSW 4.6 mph - N/A   Mostly Cloudy
5:53 AM 27.0 °F 21.6 °F 25.0 °F 92% 29.92 in 10.0 mi SSW 4.6 mph - N/A   Overcast
6:24 AM 26.6 °F 21.2 °F 24.8 °F 93% 29.87 in 9.0 mi South 4.6 mph - N/A   Overcast
6:53 AM 27.0 °F 23.0 °F 25.0 °F 92% 29.90 in 7.0 mi SSW 3.5 mph - N/A   Overcast
7:53 AM 27.0 °F 23.0 °F 25.0 °F 92% 29.90 in 9.0 mi WSW 3.5 mph - N/A   Overcast
8:53 AM 26.1 °F 21.9 °F 25.0 °F 96% 29.89 in 5.0 mi WSW 3.5 mph - N/A   Overcast
9:53 AM 27.0 °F - 25.0 °F 92% 29.89 in 7.0 mi Calm Calm - N/A   Overcast
10:21 AM 28.4 °F - 24.8 °F 86% 29.85 in 8.0 mi Calm Calm - N/A   Overcast
10:53 AM 28.0 °F - 25.0 °F 88% 29.88 in 7.0 mi Calm Calm - N/A   Overcast
11:53 AM 28.9 °F - 26.1 °F 89% 29.86 in 9.0 mi Calm Calm - N/A   Overcast
12:39 PM 30.2 °F - 26.6 °F 86% 29.81 in 10.0 mi Calm Calm - N/A   Overcast
12:53 PM 30.0 °F - 26.1 °F 85% 29.83 in 10.0 mi Calm Calm - N/A   Overcast
1:53 PM 30.0 °F 23.2 °F 26.1 °F 85% 29.79 in 10.0 mi NE 6.9 mph - N/A   Overcast
2:33 PM 30.2 °F 25.4 °F 26.6 °F 86% 29.76 in 9.0 mi NNE 4.6 mph - N/A   Overcast
2:53 PM 28.9 °F 21.9 °F 26.1 °F 89% 29.80 in 4.0 mi NNE 6.9 mph - N/A   Overcast
3:37 PM 28.4 °F 22.2 °F 26.6 °F 93% 29.76 in 3.0 mi NNE 5.8 mph - N/A   Overcast
3:45 PM 28.4 °F 21.2 °F 26.6 °F 93% 29.76 in 2.5 mi NNE 6.9 mph - N/A   Overcast
3:53 PM 28.9 °F 20.4 °F 27.0 °F 92% 29.79 in 2.0 mi NE 9.2 mph - N/A   Overcast
4:01 PM 28.4 °F 20.4 °F 26.6 °F 93% 29.76 in 1.2 mi NNE 8.1 mph - N/A   Overcast
4:17 PM 28.4 °F 19.7 °F 28.4 °F 100% 29.77 in 0.8 mi NNE 9.2 mph - N/A   Overcast
4:30 PM 28.4 °F 19.7 °F 28.4 °F 100% 29.78 in 1.0 mi NNE 9.2 mph - 0.00 in Snow Light Snow
4:53 PM 28.9 °F 20.4 °F 28.0 °F 96% 29.83 in 2.5 mi NE 9.2 mph - 0.00 in   Overcast
5:17 PM 30.2 °F 21.9 °F 28.4 °F 93% 29.80 in 1.8 mi NE 9.2 mph - N/A   Overcast
5:31 PM 30.2 °F 17.8 °F 28.4 °F 93% 29.80 in 0.8 mi NE 19.6 mph 26.5 mph 0.00 in Snow Light Snow
5:43 PM 28.4 °F 16.2 °F 26.6 °F 93% 29.80 in 1.0 mi NE 17.3 mph 28.8 mph 0.00 in Snow Light Snow
5:53 PM 28.9 °F 16.9 °F 27.0 °F 92% 29.84 in 1.2 mi NE 17.3 mph 28.8 mph 0.00 in Snow Light Snow
6:18 PM 26.6 °F 11.7 °F 24.8 °F 93% 29.83 in 0.5 mi NE 24.2 mph 32.2 mph 0.01 in Fog , Snow Snow
6:53 PM 26.1 °F 12.3 °F 24.1 °F 92% 29.89 in 0.8 mi NNE 19.6 mph 35.7 mph 0.01 in Snow Light Snow
7:53 PM 24.1 °F 7.7 °F 21.0 °F 88% 29.92 in 0.8 mi NNE 26.5 mph 39.1 mph 0.00 in Snow Light Snow
8:53 PM 19.9 °F 1.0 °F 17.1 °F 89% 29.97 in 0.5 mi NNE 31.1 mph 42.6 mph 0.01 in Fog , Snow Light Freezing Fog
9:08 PM 19.4 °F 1.8 °F 15.8 °F 86% 29.94 in 1.0 mi NNE 25.3 mph 40.3 mph 0.00 in Rain Light Freezing Rain
9:17 PM 19.4 °F -0.0 °F 15.8 °F 86% 29.95 in 1.0 mi NNE 32.2 mph 94.4 mph N/A Snow Light Snow
9:38 PM 17.6 °F 0.1 °F 14.0 °F 86% 29.96 in 2.5 mi NNE 23.0 mph 32.2 mph N/A   Overcast
9:53 PM 18.0 °F -0.2 °F 14.0 °F 84% 30.01 in 2.5 mi NNE 25.3 mph 32.2 mph N/A   Overcast
10:05 PM 17.6 °F 1.7 °F 14.0 °F 86% 29.97 in 1.8 mi NNE 18.4 mph - N/A   Overcast
10:32 PM 17.6 °F 0.9 °F 14.0 °F 86% 29.97 in 0.8 mi NNE 20.7 mph 27.6 mph N/A Snow Light Snow
10:53 PM 17.1 °F 1.0 °F 12.9 °F 84% 30.04 in 0.8 mi NNE 18.4 mph 28.8 mph N/A   Mist
11:00 PM 17.6 °F 0.5 °F 12.2 °F 79% 29.99 in 1.0 mi NNE 21.9 mph 28.8 mph N/A   Mist
11:53 PM 16.0 °F -0.9 °F 12.9 °F 88% 30.06 in 1.0 mi NNE 19.6 mph 28.8 mph N/A   Mist